Location: Aydie
(43.5695°N, 0.1043°W)
Time: 12:01:53
(UTC+00:00)

BREEZE-M DEB (TANK) - Pass Details

Date: 17 November 2025
Orbit: 325 x 14899 km, 49.3° (Epoch: 08 December)

Event Time Altitude Azimuth Distance (km) Brightness Sun altitude
Rises 19:08:32 0° 297° (WNW) 10,507 10.2 -28.0°
Reaches altitude 10° 19:18:59 10° 298° (WNW) 7,041 9.1 -29.9°
Maximum altitude 19:34:22 69° 219° (SW) 1,197 4.4 -32.6°
Enters shadow 19:34:34 69° 206° (SSW) 1,172 4.3 -32.7°
